THORAD AGENA D DEB, 4613

Orbit data source: Space-Track

THORAD AGENA D DEB, 4613 is space debris in SSO originally from a launch on Wed, 08 Apr 1970 UTC launched from the Air Force Western Test Range (AFWTR). Debris objects in space refer to the collection of defunct objects orbiting the Earth. Examples of debris include non-operational satellites, rocket bodies, and fragments generated from explosions, collisions, or faulty payload assembly.

Loading next visibility...
Identifier
4613, 1970-025R
Orbit
SSO
Country
Flag of USUS
Related business
Manufacturer
Unknown
Mission
Spacecraft
Bus & Motor
Unknown
Mass
Unknown
Launch date (UTC)
1970-04-08 (56 years ago)
Launch vehicle
Unknown
Launch site
Air Force Western Test Range (AFWTR)
Object type
Payload
Rocket body
Debris
Shape & HBR
Unknown shape, 0.1 m
Radar Cross Section
Medium (>0.1 m² and <1 m²)

Expand to show TLE details & history
Last TLE update: 7 hours ago

TLE from 7 hours ago
0 THORAD AGENA D DEB
1  4613U 70025R   26257.04481279  .00001192  00000-0  49739-3 0  9993
2  4613  98.5777 290.0324 0082767 269.2474  89.9222 14.26212026873773
Epoch: 2026-09-14T01:04Z
TLE epoch observation values (Epoch: 2026-09-14T01:04:31.825Z)
Latitude
-0.00003°
Longitude
-79.13096°
Altitude
807.759 km
Speed
7.449 km/s
True Right ascension
19h 20m 07s
True Declination
0° 00' 00"
Sunlit
Object was in full shadow at epoch
Visualization orbit readout
Latitude
Unknown
Longitude
Unknown
Altitude
Unknown
Speed
Unknown
Apparent Right ascension
Unknown
Apparent Declination
Unknown
Sunlit
N/A
Visualization observer readout
Local Sidereal Time
00:42:16
Azimuth
Unknown
Elevation
Unknown
Doppler factor
Unknown
Orbital elements
Apogee altitude
860.988 km
Perigee altitude
742.14 km
Semi-major axis
7,179.701 km
Eccentricity
0.00828
Inclination
98.5777°
RAAN
290.0324°
Arg. of periapsis
269.2474°
True anomaly
90.87061°
Mean anomaly
89.9222°
Eccentric anomaly
90.39641°
Mean motion
3.56766 °/min
Orbital period
100.91 mins
BSTAR
0.00049739
Loading maneuver chart data...
Computing Atmospheric mass density...

Documentation

Showing up to 5 results
|